Regional Weather Roundup
Issued by NWS Albany, NY

Home | Current Version | Previous Version | Text Only | Print | Product List | Glossary On
Versions: 1 2 3 4 5 6 7 8 9 10 11 12 13 14 15 16 17 18 19 20 21 22 23 24 25 26 27 28 29 30 31 32 33 34 35 36 37 38 39 40 41 42 43 44 45 46 47 48 49 50
676
ASUS41 KALY 271710
RWRALY

NEW YORK STATE HOURLY WEATHER ROUNDUP
NATIONAL WEATHER SERVICE ALBANY NY
100 PM EDT MON MAR 27 2017

NOTE: "FAIR" INDICATES FEW OR NO CLOUDS BELOW 12,000 FEET WITH NO
SIGNIFICANT WEATHER AND/OR NO OBSTRUCTIONS TO VISIBILITY.

NYZ032-033-038>043-046>054-057>066-NYZ062>081-082-084-271800-
EAST


CITY           SKY/WX    TMP DP  RH WIND       PRES   REMARKS
ALBANY         CLOUDY    41  36  82 SE7       30.05F
GLENS FALLS    CLOUDY    37  35  92 CALM      30.05S FOG
POUGHKEEPSIE   CLOUDY    40  38  93 CALM      30.05F FOG
NEWBURGH       LGT RAIN  39  39 100 CALM      30.07F FOG
MONTGOMERY     CLOUDY    41  39  93 CALM      30.05F
WHITE PLAINS   CLOUDY    44  42  93 CALM      30.04S FOG
ISLIP          CLOUDY    50  50 100 SW8       30.04F FOG
NEW YORK CITY  CLOUDY    44  41  89 NE8       30.05F
CENTRAL PARK   CLOUDY    48  43  82 NE3       30.07F
$$

NYZ005>009-017-018-044>046-055-056-271800-
CENTRAL


CITY           SKY/WX    TMP DP  RH WIND       PRES   REMARKS
FULTON         CLOUDY    45  41  86 CALM      29.94S
SYRACUSE       CLOUDY    50  44  80 SE6       29.94F
ROME           CLOUDY    40  38  93 E9        29.99F WCI  34
ELMIRA         MOSUNNY   58  46  64 SW9       29.95F
BINGHAMTON     CLOUDY    44  42  93 S6        29.97F
MONTICELLO     CLOUDY    37  37 100 CALM      30.03F VSB 1/4
$$

NYZ026>034-041>043-087-271800-
NORTH


CITY           SKY/WX    TMP DP  RH WIND       PRES   REMARKS
WATERTOWN      CLOUDY    46  44  93 S7        29.92S
FORT DRUM      NOT AVBL
MASSENA        LGT RAIN  37  36  96 E7        29.95S FOG     WCI  32
SARANAC LAKE   CLOUDY    41  39  93 SW9       29.91F
PLATTSBURGH    CLOUDY    37  34  89 SE15      29.98F WCI  28
$$

NYZ001>004-010>016-019>021-085-271800-
WEST


CITY           SKY/WX    TMP DP  RH WIND       PRES   REMARKS
NIAGARA FALLS  CLOUDY    54  50  86 SW13      29.90S
BUFFALO        FOG       47  46  97 SW15      29.92S VSB 1/4
DUNKIRK        LGT RAIN  50  50 100 SW13G22   29.95S FOG
JAMESTOWN      CLOUDY    52  48  87 W9        29.95S
WELLSVILLE     CLOUDY    54  48  80 SW13G18   29.96S
ROCHESTER      CLOUDY    55  48  77 SW10      29.91F
PENN YAN       CLOUDY    54  45  71 S9        29.93F
$$

             KEY
       WCI = WIND CHILL INDEX
       VSB = VISIBILITY
       HX  = HEAT INDEX
$$




USA.gov is the U.S. government's official web portal to all federal, state and local government web resources and services.